Regional Weather Roundup
Issued by NWS

Home | Current Version | Previous Version | Text Only | Print | Product List | Glossary On
Versions: 1 2 3 4 5 6 7 8 9 10 11 12 13 14 15 16 17 18 19 20 21 22 23 24 25 26 27 28 29 30 31 32 33 34 35 36 37 38 39 40 41 42 43 44 45 46 47 48 49 50
000
ASUS44 KJAN 131610
RWRMS

MISSISSIPPI HOURLY WEATHER ROUNDUP
NATIONAL WEATHER SERVICE JACKSON MS
1100 AM CDT SUN JUL 13 2014

NOTE: "FAIR: INDICATES FEW OR NO CLOUDS BELOW 12,000 FEET WITH NO
SIGNIFICANT WEATHER AND/OR OBSTRUCTIONS TO VISIBILITY.

MSZ001>002-007>008-010>013-018>021-025>028-034>036-131700-
NORTHWEST MISSISSIPPI

CITY           SKY/WX    TMP DP  RH WIND       PRES   REMARKS
CLARKSDALE     FAIR      90  75  62 CALM      30.10F HX 100
CLEVELAND      FAIR      88  78  72 CALM      30.10S HX 101
GREENWOOD      SUNNY     88  72  58 SW5       30.11F HX  94
GREENVILLE     SUNNY     89  71  55 VRB3      30.10S HX  95
GRENADA        FAIR      90  72  55 S6        30.11S HX  96
OLIVE BRANCH   MOSUNNY   88  79  74 SW5       30.10F HX 102
OXFORD         FAIR      84  72  65 W3        30.13F
TUNICA         SUNNY     90  73  58 W6        30.10F HX  98
$$

MSZ003>006-009-014>017-022>024-029>033-037>039-131700-
NORTHEAST MISSISSIPPI

CITY           SKY/WX    TMP DP  RH WIND       PRES   REMARKS
BELMONT        FAIR      85  73  67 SW5       30.13S HX  91
COLUMBUS AFB   SUNNY     87  74  63 W6        30.12F HX  95
CORINTH        FAIR      86  72  62 SW6       30.11S HX  92
GOLDN TRIANGLE MOSUNNY   88  73  62 CALM      30.13F HX  96
STARKVILLE     FAIR      86  72  62 CALM      30.12F HX  92
TUPELO         MOSUNNY   88  71  57 VRB3      30.11F HX  94
$$

MSZ040-058-131700-
CENTRAL MISSISSIPPI

CITY           SKY/WX    TMP DP  RH WIND       PRES   REMARKS
JACKSON INTL   MOSUNNY   89  74  60 N6        30.11F HX  98
JACKSON HAWKNS SUNNY     88  73  61 N6        30.12S HX  95
MERIDIAN KEY   MOSUNNY   86  73  65 CALM      30.12F HX  93
MERIDIAN NAS   SUNNY     86  72  62 S7        30.13F HX  92
RAYMOND        FAIR      86  81  84 NW3       30.12S HX 102
VICKSBURG      SUNNY     87  75  67 CALM      30.11S HX  96
$$

MSZ059>079-131700-
SOUTH MISSISSIPPI

CITY           SKY/WX    TMP DP  RH WIND       PRES   REMARKS
BROOKHAVEN     FAIR      88  75  66 CALM      30.14S HX  97
COLUMBIA       FAIR      90  77  66 VRB3      30.10S HX 102
HATTIESBURG    SUNNY     86  76  71 E3        30.12F HX  96
MCCOMB         MOSUNNY   87  71  58 CALM      30.12R HX  93
NATCHEZ        SUNNY     88  73  62 N6        30.12S HX  96
PINE BELT      SUNNY     88  72  58 NE3       30.13F HX  94
$$

MSZ080>082-131700-
COASTAL MISSISSIPPI

CITY           SKY/WX    TMP DP  RH WIND       PRES   REMARKS
BAY ST LOUIS   MOSUNNY  N/A N/A N/A S5        30.13R
BILOXI         PTSUNNY   84  75  73 SW3       30.12S HX  92
PASCAGOULA     PTSUNNY   84  74  71 S6        30.11F HX  91
GULFPORT       PTSUNNY   84  70  62 W6        30.12S
$$



USA.gov is the U.S. government's official web portal to all federal, state and local government web resources and services.